Погода в Трувиль-сюр-Мере

Франция     49°21′47″N   0°05′07″E
темп.,
°C
ветер,
м/с
пор.,
м/с
влажн.,
%
обл.,
%
осадки,
мм/ч
давл.,
гПа
погр.,
м
1 марта, пн
пн101:00+4в35880 0.0 1031142
04:00+3в37880 0.0 1029147
07:00+3вюв46900 0.0 1029135
10:00+6вюв46810 0.0 1029269
13:00+11в45710 0.0 1029357
16:00+12в45700 0.0 1027392
19:00+8в34820 0.0 102758
22:00+6вюв35840 0.0 1027112
2 марта, вт
вт201:00+5вюв33850 0.0 102870
04:00+4вюв33850 0.0 102655
07:00+4вюв33862 0.0 102769
10:00+8юв348046 0.0 1028170
13:00+13ююв247133 0.0 1028392
16:00+14ю346933 0.0 1027548
19:00+10ююв348232 0.0 102736
22:00+9ююв34862 0.0 102839
3 марта, ср
ср301:00+8ююв34882 0.0 102850
04:00+9ю338495 0.0 102753
07:00+8ююв358895 0.0 102798
10:00+9ю4894100 1.6 1027221
13:00+12ююв358898 3.1 1027254
16:00+14ююз367323 1.6 1024851
19:00+10юз238511 2.7 102423
22:00+9ююз488989 0.4 1023158
4 марта, чт
чт401:00+7юз349680 0.4 102294
04:00+6юз339614 0.0 102189
07:00+7юз359637 0.1 1020198
10:00+9з2392100 0.1 1020178
13:00+10сз4490100 0.2 1020344
16:00+9с579134 0.0 1019349
19:00+7ссв588923 0.0 1020281
22:00+5св48911 0.0 1021320
5 марта, пт
пт501:00+5св488815 0.0 1021445
04:00+6св687987 0.1 1021741
07:00+4св797694 0.1 1022696
10:00+5св687491 0.1 10231093
13:00+6св686289 0.1 10241306
16:00+6св7964100 0.0 10241451
19:00+5св8116098 0.1 1025911
22:00+3всв8136516 0.0 1028677